,,,PA_Meas_PMT16A,,PR_Meas_QMR101_102,,RH_Meas_QMH101,,SR_Meas_QMS101,,TA_Meas_QMH101,,GenWind,,GenWind,
date,time,status,PA,status,PR,status,RH,status,SR,status,TA,status,DirAvg,status,SpdAvg,
2009-11-11, 00:00:04,VALID,1006.08,VALID,0,VALID,87.4293,VALID,0,VALID,23.9102,VALID,222,VALID,0.29375,
2009-11-11, 00:01:04,VALID,1006.08,VALID,0,VALID,87.4293,VALID,0,VALID,23.8889,VALID,222,VALID,0.316797,
2009-11-11, 00:02:04,VALID,1006.04,VALID,0,VALID,87.4293,VALID,0,VALID,23.8907,VALID,221,VALID,0.242969,
2009-11-11, 00:03:04,VALID,1006.02,VALID,0,VALID,87.4369,VALID,0,VALID,23.8712,VALID,221,VALID,0.219141,
2009-11-11, 00:04:04,VALID,1006,VALID,0,VALID,87.4293,VALID,0,VALID,23.8907,VALID,221,VALID,0.145313,
2009-11-11, 00:05:04,VALID,1005.96,VALID,0,VALID,87.4369,VALID,0,VALID,23.8694,VALID,221,VALID,0,
2009-11-11, 00:06:04,VALID,1005.9,VALID,0,VALID,87.4674,VALID,0,VALID,23.8907,VALID,221,VALID,0,
2009-11-11, 00:07:04,VALID,1005.89,VALID,0,VALID,87.4216,VALID,0,VALID,23.8694,VALID,221,VALID,0.155469,
2009-11-11, 00:08:04,VALID,1005.87,VALID,0,VALID,87.4216,VALID,0,VALID,23.8712,VALID,221,VALID,0.232812,
2009-11-11, 00:09:04,VALID,1005.87,VALID,0,VALID,87.4521,VALID,0,VALID,23.8499,VALID,117,VALID,0.453125,
2009-11-11, 00:10:04,VALID,1005.88,VALID,0,VALID,87.3911,VALID,0.105969,VALID,23.8871,VALID,110,VALID,0.521875,
2009-11-11, 00:11:04,VALID,1005.84,VALID,0,VALID,87.3759,VALID,0.105969,VALID,23.9065,VALID,89,VALID,0.746875,
2009-11-11, 00:12:04,VALID,1005.86,VALID,0,VALID,87.414,VALID,0.211938,VALID,23.9065,VALID,81,VALID,0.817187,
2009-11-11, 00:13:04,VALID,1005.87,VALID,0.5,VALID,87.4064,VALID,0.105969,VALID,23.9065,VALID,53,VALID,0.629297,
2009-11-11, 00:14:04,VALID,1005.84,VALID,0,VALID,87.4369,VALID,0.105969,VALID,23.9084,VALID,13,VALID,0.535547,
2009-11-11, 00:15:04,VALID,1005.84,VALID,0,VALID,87.4369,VALID,0.105969,VALID,23.8871,VALID,3,VALID,0.586719,
2009-11-11, 00:16:04,VALID,1005.85,VALID,0,VALID,87.4369,VALID,0,VALID,23.8676,VALID,18,VALID,0.666406,
2009-11-11, 00:17:04,VALID,1005.86,VALID,0,VALID,87.4445,VALID,0.105969,VALID,23.8481,VALID,28,VALID,0.613672,
2009-11-11, 00:18:04,VALID,1005.87,VALID,0,VALID,87.4521,VALID,0.105969,VALID,23.8481,VALID,30,VALID,0.496094,
2009-11-11, 00:19:04,VALID,1005.88,VALID,0,VALID,87.475,VALID,0.105969,VALID,23.8676,VALID,30,VALID,0.198437,
2009-11-11, 00:20:04,VALID,1005.89,VALID,0,VALID,87.4521,VALID,0.105969,VALID,23.8499,VALID,82,VALID,0.905078,
2009-11-11, 00:21:04,VALID,1005.85,VALID,0,VALID,87.4293,VALID,0,VALID,23.8091,VALID,102,VALID,0.912109,
2009-11-11, 00:22:04,VALID,1005.86,VALID,0,VALID,87.4445,VALID,0.105969,VALID,23.8286,VALID,78,VALID,0.632422,
2009-11-11, 00:23:04,VALID,1005.87,VALID,0,VALID,87.4064,VALID,0.105969,VALID,23.8481,VALID,93,VALID,0.678906,
2009-11-11, 00:24:04,VALID,1005.82,VALID,0,VALID,87.4293,VALID,0.105969,VALID,23.8481,VALID,97,VALID,1.08203,
2009-11-11, 00:25:04,VALID,1005.78,VALID,0,VALID,87.4445,VALID,0,VALID,23.8091,VALID,97,VALID,0.534375,
2009-11-11, 00:26:04,VALID,1005.78,VALID,0,VALID,87.414,VALID,0.105969,VALID,23.8286,VALID,106,VALID,0.617578,
2009-11-11, 00:27:04,VALID,1005.73,VALID,0,VALID,87.4216,VALID,0,VALID,23.8499,VALID,79,VALID,0.348047,
2009-11-11, 00:28:04,VALID,1005.71,VALID,0,VALID,87.4293,VALID,0.105969,VALID,23.8481,VALID,79,VALID,0.521484,
2009-11-11, 00:29:04,VALID,1005.69,VALID,0,VALID,87.4293,VALID,0.105969,VALID,23.8499,VALID,77,VALID,0.73125,
2009-11-11, 00:30:04,VALID,1005.71,VALID,0,VALID,87.4521,VALID,0.105969,VALID,23.8286,VALID,75,VALID,0.439453,
2009-11-11, 00:31:04,VALID,1005.67,VALID,0,VALID,87.4293,VALID,0.105969,VALID,23.8286,VALID,73,VALID,0.658984,
2009-11-11, 00:32:04,VALID,1005.69,VALID,0,VALID,87.4293,VALID,0.105969,VALID,23.8481,VALID,71,VALID,0.354297,
2009-11-11, 00:33:04,VALID,1005.7,VALID,0,VALID,87.4064,VALID,0.105969,VALID,23.8481,VALID,71,VALID,0.795313,
2009-11-11, 00:34:04,VALID,1005.7,VALID,0,VALID,87.4445,VALID,0.105969,VALID,23.8286,VALID,55,VALID,0.332812,
2009-11-11, 00:35:04,VALID,1005.67,VALID,0,VALID,87.4674,VALID,0,VALID,23.7896,VALID,75,VALID,0.459375,
2009-11-11, 00:36:04,VALID,1005.67,VALID,0,VALID,87.4598,VALID,0.105969,VALID,23.7914,VALID,54,VALID,0.408984,
2009-11-11, 00:37:04,VALID,1005.63,VALID,0,VALID,87.4369,VALID,0.105969,VALID,23.7701,VALID,54,VALID,0.300391,
2009-11-11, 00:38:04,VALID,1005.62,VALID,0,VALID,87.4674,VALID,0.105969,VALID,23.7701,VALID,38,VALID,0.391406,
2009-11-11, 00:39:04,VALID,1005.62,VALID,0,VALID,87.4521,VALID,0.105969,VALID,23.7896,VALID,37,VALID,0.0078125,
2009-11-11, 00:40:04,VALID,1005.64,VALID,0,VALID,87.4293,VALID,0,VALID,23.772,VALID,49,VALID,0.405859,
2009-11-11, 00:41:04,VALID,1005.64,VALID,0,VALID,87.475,VALID,0,VALID,23.772,VALID,14,VALID,0.512891,
2009-11-11, 00:42:04,VALID,1005.66,VALID,0,VALID,87.4598,VALID,0,VALID,23.772,VALID,47,VALID,0.526172,
2009-11-11, 00:43:04,VALID,1005.66,VALID,0,VALID,87.4445,VALID,0,VALID,23.7738,VALID,56,VALID,0.367188,
2009-11-11, 00:44:04,VALID,1005.67,VALID,0,VALID,87.4445,VALID,0,VALID,23.7525,VALID,16,VALID,0.228125,
2009-11-11, 00:45:04,VALID,1005.68,VALID,0,VALID,87.4369,VALID,0,VALID,23.7525,VALID,36,VALID,0.216016,
2009-11-11, 00:46:04,VALID,1005.67,VALID,0,VALID,87.4369,VALID,0,VALID,23.733,VALID,76,VALID,0.467187,
2009-11-11, 00:47:04,VALID,1005.71,VALID,0,VALID,87.4064,VALID,0,VALID,23.7525,VALID,83,VALID,0.367969,
2009-11-11, 00:48:04,VALID,1005.69,VALID,0,VALID,87.4369,VALID,0,VALID,23.7525,VALID,71,VALID,0.247656,
2009-11-11, 00:49:04,VALID,1005.68,VALID,0,VALID,87.4598,VALID,0,VALID,23.7738,VALID,71,VALID,0.403516,
2009-11-11, 00:50:04,VALID,1005.67,VALID,0,VALID,87.4369,VALID,0,VALID,23.733,VALID,75,VALID,0.751562,
2009-11-11, 00:51:04,VALID,1005.61,VALID,0,VALID,87.4521,VALID,0,VALID,23.7348,VALID,86,VALID,1.14492,
2009-11-11, 00:52:04,VALID,1005.61,VALID,0,VALID,87.4598,VALID,0,VALID,23.7348,VALID,81,VALID,0.557813,
2009-11-11, 00:53:04,VALID,1005.51,VALID,0,VALID,87.4293,VALID,0,VALID,23.7135,VALID,15,VALID,0.0433594,
2009-11-11, 00:54:04,VALID,1005.52,VALID,0,VALID,87.4369,VALID,0,VALID,23.733,VALID,57,VALID,0.546094,
2009-11-11, 00:55:04,VALID,1005.49,VALID,0,VALID,87.4445,VALID,0,VALID,23.7135,VALID,46,VALID,0.464453,
2009-11-11, 00:56:04,VALID,1005.49,VALID,0,VALID,87.4674,VALID,0.105969,VALID,23.733,VALID,96,VALID,0.620313,
2009-11-11, 00:57:04,VALID,1005.45,VALID,0,VALID,87.4521,VALID,0.105969,VALID,23.6922,VALID,83,VALID,0.711328,
2009-11-11, 00:58:04,VALID,1005.43,VALID,0,VALID,87.4293,VALID,0.105969,VALID,23.7117,VALID,87,VALID,0.998438,
2009-11-11, 00:59:04,VALID,1005.44,VALID,0,VALID,87.4369,VALID,0.105969,VALID,23.7117,VALID,84,VALID,0.870703,
2009-11-11, 01:00:04,VALID,1005.43,VALID,0,VALID,87.4445,VALID,0.105969,VALID,23.7312,VALID,93,VALID,0.941406,
2009-11-11, 01:01:04,VALID,1005.39,VALID,0,VALID,87.4445,VALID,0,VALID,23.7525,VALID,72,VALID,0.895703,
2009-11-11, 01:02:04,VALID,1005.36,VALID,0,VALID,87.4216,VALID,0,VALID,23.733,VALID,74,VALID,0.472266,
2009-11-11, 01:03:04,VALID,1005.31,VALID,0,VALID,87.4674,VALID,0.105969,VALID,23.7312,VALID,58,VALID,1.45078,
2009-11-11, 01:04:04,VALID,1005.26,VALID,0,VALID,87.4369,VALID,0.105969,VALID,23.7117,VALID,55,VALID,0.691797,
2009-11-11, 01:05:04,VALID,1005.23,VALID,0,VALID,87.4598,VALID,0.105969,VALID,23.7117,VALID,59,VALID,0.944141,
2009-11-11, 01:06:04,VALID,1005.19,VALID,0,VALID,87.4445,VALID,0.105969,VALID,23.6922,VALID,45,VALID,0.562109,
2009-11-11, 01:07:04,VALID,1005.15,VALID,0,VALID,87.4521,VALID,0.105969,VALID,23.6922,VALID,70,VALID,0.530859,
2009-11-11, 01:08:04,VALID,1005.13,VALID,0,VALID,87.4674,VALID,0.105969,VALID,23.6922,VALID,54,VALID,0.412891,
2009-11-11, 01:09:04,VALID,1005.09,VALID,0,VALID,87.4674,VALID,0.105969,VALID,23.6922,VALID,54,VALID,0.0148437,
2009-11-11, 01:10:04,VALID,1005.05,VALID,0,VALID,87.4369,VALID,0,VALID,23.7135,VALID,53,VALID,0.241016,
2009-11-11, 01:11:04,VALID,1005,VALID,0,VALID,87.4674,VALID,0,VALID,23.7153,VALID,53,VALID,0,
2009-11-11, 01:12:04,VALID,1004.96,VALID,0,VALID,87.4598,VALID,0,VALID,23.7348,VALID,53,VALID,0,
2009-11-11, 01:13:04,VALID,1004.93,VALID,0,VALID,87.4445,VALID,0,VALID,23.7543,VALID,53,VALID,0.0519531,
2009-11-11, 01:14:04,VALID,1004.93,VALID,0,VALID,87.4293,VALID,0,VALID,23.733,VALID,53,VALID,0.241797,
2009-11-11, 01:15:04,VALID,1004.92,VALID,0,VALID,87.4369,VALID,0,VALID,23.733,VALID,53,VALID,0.155078,
2009-11-11, 01:16:04,VALID,1004.95,VALID,0,VALID,87.4445,VALID,0,VALID,23.7135,VALID,53,VALID,0.358984,
2009-11-11, 01:17:04,VALID,1004.97,VALID,0,VALID,87.475,VALID,0,VALID,23.7153,VALID,144,VALID,0.180469,
2009-11-11, 01:18:04,VALID,1004.97,VALID,0,VALID,87.4445,VALID,0,VALID,23.694,VALID,144,VALID,0,
2009-11-11, 01:19:04,VALID,1005.03,VALID,0,VALID,87.475,VALID,0,VALID,23.7348,VALID,144,VALID,0,
2009-11-11, 01:20:04,VALID,1005.04,VALID,0,VALID,87.4598,VALID,0,VALID,23.7348,VALID,144,VALID,0,
2009-11-11, 01:21:04,VALID,1005.03,VALID,0,VALID,87.4445,VALID,0,VALID,23.7135,VALID,144,VALID,0,
2009-11-11, 01:22:04,VALID,1005.04,VALID,0,VALID,87.4293,VALID,0,VALID,23.7135,VALID,144,VALID,0,
2009-11-11, 01:23:04,VALID,1005.02,VALID,0,VALID,87.475,VALID,0,VALID,23.7135,VALID,144,VALID,0,
2009-11-11, 01:24:04,VALID,1005.01,VALID,0,VALID,87.475,VALID,0,VALID,23.7135,VALID,144,VALID,0,
2009-11-11, 01:25:04,VALID,1005.02,VALID,0,VALID,87.4598,VALID,0.105969,VALID,23.6922,VALID,144,VALID,0.267578,
2009-11-11, 01:26:04,VALID,1005.03,VALID,0,VALID,87.4598,VALID,0.105969,VALID,23.7135,VALID,144,VALID,0.129297,
2009-11-11, 01:27:04,VALID,1005.03,VALID,0,VALID,87.4598,VALID,0.105969,VALID,23.6922,VALID,144,VALID,0.213281,
2009-11-11, 01:28:04,VALID,1005.06,VALID,0,VALID,87.4598,VALID,0.105969,VALID,23.7117,VALID,144,VALID,0,
2009-11-11, 01:29:04,VALID,1005.05,VALID,0,VALID,87.4598,VALID,0.105969,VALID,23.7312,VALID,144,VALID,0.0707031,
2009-11-11, 01:30:04,VALID,1005.04,VALID,0,VALID,87.4369,VALID,0.105969,VALID,23.7312,VALID,144,VALID,0.232031,
2009-11-11, 01:31:04,VALID,1005.08,VALID,0,VALID,87.4216,VALID,0.105969,VALID,23.7525,VALID,76,VALID,0.214844,
2009-11-11, 01:32:04,VALID,1005.07,VALID,0,VALID,87.4674,VALID,0.105969,VALID,23.7312,VALID,68,VALID,0.3625,
2009-11-11, 01:33:04,VALID,1005.09,VALID,0,VALID,87.4293,VALID,0.105969,VALID,23.7312,VALID,68,VALID,0,
2009-11-11, 01:34:04,VALID,1005.06,VALID,0,VALID,87.4445,VALID,0.105969,VALID,23.7525,VALID,68,VALID,0,
2009-11-11, 01:35:04,VALID,1005.09,VALID,0,VALID,87.4445,VALID,0.105969,VALID,23.7117,VALID,68,VALID,0,
2009-11-11, 01:36:04,VALID,1005.07,VALID,0,VALID,87.4598,VALID,0.105969,VALID,23.7312,VALID,68,VALID,0.104687,
2009-11-11, 01:37:04,VALID,1005.05,VALID,0,VALID,87.4826,VALID,0,VALID,23.7135,VALID,68,VALID,0.253906,
2009-11-11, 01:38:04,VALID,1005.01,VALID,0,VALID,87.4445,VALID,0.105969,VALID,23.7117,VALID,68,VALID,0.359766,
2009-11-11, 01:39:04,VALID,1005.04,VALID,0,VALID,87.4674,VALID,0.105969,VALID,23.7117,VALID,68,VALID,0.0101562,
2009-11-11, 01:40:04,VALID,1004.99,VALID,0,VALID,87.4445,VALID,0,VALID,23.7135,VALID,68,VALID,0.199609,
2009-11-11, 01:41:04,VALID,1005.01,VALID,0,VALID,87.4674,VALID,0,VALID,23.6922,VALID,68,VALID,0.525,
2009-11-11, 01:42:04,VALID,1004.97,VALID,0,VALID,87.4521,VALID,0,VALID,23.6922,VALID,73,VALID,0.423438,
2009-11-11, 01:43:04,VALID,1004.99,VALID,0,VALID,87.4216,VALID,0.105969,VALID,23.733,VALID,73,VALID,0.483594,
2009-11-11, 01:44:04,VALID,1004.98,VALID,0,VALID,87.4598,VALID,0.105969,VALID,23.7117,VALID,80,VALID,0.490625,
2009-11-11, 01:45:04,VALID,1004.98,VALID,0,VALID,87.4293,VALID,0.105969,VALID,23.733,VALID,81,VALID,0.709766,
2009-11-11, 01:46:04,VALID,1004.99,VALID,0,VALID,87.4598,VALID,0.105969,VALID,23.6922,VALID,72,VALID,0.440625,
2009-11-11, 01:47:04,VALID,1004.99,VALID,0,VALID,87.4521,VALID,0,VALID,23.7135,VALID,72,VALID,0.252344,
2009-11-11, 01:48:04,VALID,1004.97,VALID,0,VALID,87.4521,VALID,0.105969,VALID,23.6922,VALID,72,VALID,0.329688,
2009-11-11, 01:49:04,VALID,1004.98,VALID,0,VALID,87.4293,VALID,0.105969,VALID,23.6727,VALID,72,VALID,0,
2009-11-11, 01:50:04,VALID,1004.95,VALID,0,VALID,87.4598,VALID,0,VALID,23.6922,VALID,72,VALID,0,
2009-11-11, 01:51:04,VALID,1004.94,VALID,0.5,VALID,87.4445,VALID,0,VALID,23.7135,VALID,72,VALID,0,
2009-11-11, 01:52:04,VALID,1004.95,VALID,0,VALID,87.4445,VALID,0.105969,VALID,23.6922,VALID,72,VALID,0.183203,
2009-11-11, 01:53:04,VALID,1004.96,VALID,0,VALID,87.4064,VALID,0.105969,VALID,23.7312,VALID,72,VALID,0.169922,
2009-11-11, 01:54:04,VALID,1004.95,VALID,0,VALID,87.414,VALID,0,VALID,23.7525,VALID,145,VALID,0.483594,
2009-11-11, 01:55:04,VALID,1004.96,VALID,0,VALID,87.4369,VALID,0,VALID,23.7135,VALID,192,VALID,0.385547,
2009-11-11, 01:56:04,VALID,1004.97,VALID,0,VALID,87.4521,VALID,0,VALID,23.6922,VALID,192,VALID,0.361719,
2009-11-11, 01:57:04,VALID,1004.97,VALID,0,VALID,87.4369,VALID,0.105969,VALID,23.6922,VALID,192,VALID,0.542969,
2009-11-11, 01:58:04,VALID,1004.98,VALID,0,VALID,87.4293,VALID,0.105969,VALID,23.694,VALID,192,VALID,0.205469,
2009-11-11, 01:59:04,VALID,1004.99,VALID,0,VALID,87.4445,VALID,0.105969,VALID,23.7117,VALID,192,VALID,0.425,
2009-11-11, 02:00:04,VALID,1005.04,VALID,0,VALID,87.4369,VALID,0,VALID,23.7117,VALID,197,VALID,0.45,
2009-11-11, 02:01:04,VALID,1005.03,VALID,0,VALID,87.4674,VALID,0,VALID,23.7117,VALID,210,VALID,0.419531,
2009-11-11, 02:02:04,VALID,1005.07,VALID,0,VALID,87.414,VALID,0.105969,VALID,23.7312,VALID,220,VALID,0.65,
2009-11-11, 02:03:04,VALID,1005.09,VALID,0,VALID,87.4293,VALID,0.105969,VALID,23.733,VALID,224,VALID,0.194141,
2009-11-11, 02:04:04,VALID,1005.1,VALID,0,VALID,87.4064,VALID,0,VALID,23.7525,VALID,301,VALID,0.297266,
2009-11-11, 02:05:04,VALID,1005.13,VALID,0,VALID,87.3759,VALID,0,VALID,23.772,VALID,301,VALID,0.0671875,
2009-11-11, 02:06:04,VALID,1005.15,VALID,0,VALID,87.3988,VALID,0,VALID,23.7914,VALID,301,VALID,0.0394531,
2009-11-11, 02:07:04,VALID,1005.12,VALID,0,VALID,87.4293,VALID,0,VALID,23.7701,VALID,301,VALID,0,
2009-11-11, 02:08:04,VALID,1005.13,VALID,0,VALID,87.414,VALID,0,VALID,23.7914,VALID,301,VALID,0,
2009-11-11, 02:09:04,VALID,1005.12,VALID,0,VALID,87.4216,VALID,0,VALID,23.7914,VALID,301,VALID,0,
2009-11-11, 02:10:04,VALID,1005.14,VALID,0,VALID,87.414,VALID,0,VALID,23.7701,VALID,301,VALID,0,
2009-11-11, 02:11:04,VALID,1005.1,VALID,0,VALID,87.4216,VALID,0,VALID,23.7914,VALID,301,VALID,0,
2009-11-11, 02:12:04,VALID,1005.13,VALID,0,VALID,87.4216,VALID,0.105969,VALID,23.772,VALID,301,VALID,0,
2009-11-11, 02:13:04,VALID,1005.08,VALID,0,VALID,87.3988,VALID,0.105969,VALID,23.7701,VALID,301,VALID,0,
2009-11-11, 02:14:04,VALID,1005.12,VALID,0,VALID,87.414,VALID,0.105969,VALID,23.7914,VALID,290,VALID,0.00390625,
2009-11-11, 02:15:04,VALID,1005.09,VALID,0,VALID,87.4064,VALID,0.105969,VALID,23.7896,VALID,252,VALID,0.376563,
2009-11-11, 02:16:04,VALID,1005.1,VALID,0,VALID,87.4216,VALID,0,VALID,23.7896,VALID,238,VALID,0.555859,
2009-11-11, 02:17:04,VALID,1005.09,VALID,0,VALID,87.3911,VALID,0.105969,VALID,23.7896,VALID,255,VALID,0.506641,
2009-11-11, 02:18:04,VALID,1005.11,VALID,0,VALID,87.3988,VALID,0.105969,VALID,23.7896,VALID,231,VALID,0.482422,
2009-11-11, 02:19:04,VALID,1005.14,VALID,0,VALID,87.3988,VALID,0.105969,VALID,23.8091,VALID,225,VALID,0.118359,
2009-11-11, 02:20:04,VALID,1005.1,VALID,0,VALID,87.3911,VALID,0.105969,VALID,23.8304,VALID,225,VALID,0,
2009-11-11, 02:21:04,VALID,1005.12,VALID,0,VALID,87.3911,VALID,0.105969,VALID,23.8499,VALID,225,VALID,0.00742187,
2009-11-11, 02:22:04,VALID,1005.12,VALID,0,VALID,87.3759,VALID,0,VALID,23.8091,VALID,225,VALID,0.0835937,
2009-11-11, 02:23:04,VALID,1005.12,VALID,0,VALID,87.4064,VALID,0,VALID,23.8304,VALID,225,VALID,0.205078,
2009-11-11, 02:24:04,VALID,1005.11,VALID,0,VALID,87.3835,VALID,0.105969,VALID,23.8286,VALID,225,VALID,0,
2009-11-11, 02:25:04,VALID,1005.16,VALID,0,VALID,87.3988,VALID,0.105969,VALID,23.8286,VALID,225,VALID,0,
2009-11-11, 02:26:04,VALID,1005.13,VALID,0,VALID,87.414,VALID,0.105969,VALID,23.8286,VALID,225,VALID,0.141016,
2009-11-11, 02:27:04,VALID,1005.12,VALID,0.5,VALID,87.3683,VALID,0.105969,VALID,23.8286,VALID,225,VALID,0.276172,
2009-11-11, 02:28:04,VALID,1005.12,VALID,0,VALID,87.3683,VALID,0.105969,VALID,23.8481,VALID,87,VALID,0.306641,
2009-11-11, 02:29:04,VALID,1005.13,VALID,0,VALID,87.3454,VALID,0.105969,VALID,23.8889,VALID,87,VALID,0.16875,
2009-11-11, 02:30:04,VALID,1005.12,VALID,0,VALID,87.3988,VALID,0.105969,VALID,23.8481,VALID,87,VALID,0.159375,
2009-11-11, 02:31:04,VALID,1005.14,VALID,0,VALID,87.3759,VALID,0.105969,VALID,23.8304,VALID,87,VALID,0,
2009-11-11, 02:32:04,VALID,1005.15,VALID,0,VALID,87.4064,VALID,0.105969,VALID,23.8091,VALID,87,VALID,0,
2009-11-11, 02:33:04,VALID,1005.16,VALID,0,VALID,87.3606,VALID,0.105969,VALID,23.8499,VALID,87,VALID,0,
2009-11-11, 02:34:04,VALID,1005.15,VALID,0,VALID,87.3683,VALID,0.105969,VALID,23.8091,VALID,87,VALID,0,
2009-11-11, 02:35:04,VALID,1005.14,VALID,0,VALID,87.3378,VALID,0.105969,VALID,23.8091,VALID,87,VALID,0.275781,
2009-11-11, 02:36:04,VALID,1005.14,VALID,0,VALID,87.4064,VALID,0.105969,VALID,23.8109,VALID,29,VALID,0.399609,
2009-11-11, 02:37:04,VALID,1005.15,VALID,0,VALID,87.3911,VALID,0.105969,VALID,23.7896,VALID,29,VALID,0.165625,
2009-11-11, 02:38:04,VALID,1005.12,VALID,0,VALID,87.4064,VALID,0.105969,VALID,23.7914,VALID,29,VALID,0.341406,
2009-11-11, 02:39:04,VALID,1005.1,VALID,0,VALID,87.4293,VALID,0.105969,VALID,23.7701,VALID,29,VALID,0.105078,
2009-11-11, 02:40:04,VALID,1005.09,VALID,0,VALID,87.414,VALID,0.105969,VALID,23.7896,VALID,29,VALID,0,
2009-11-11, 02:41:04,VALID,1005.08,VALID,0,VALID,87.4064,VALID,0.105969,VALID,23.8109,VALID,29,VALID,0,
2009-11-11, 02:42:04,VALID,1005.05,VALID,0,VALID,87.3988,VALID,0.105969,VALID,23.7914,VALID,29,VALID,0,
2009-11-11, 02:43:04,VALID,1005.03,VALID,0,VALID,87.3988,VALID,0.105969,VALID,23.7701,VALID,29,VALID,0,
2009-11-11, 02:44:04,VALID,1005.02,VALID,0,VALID,87.4369,VALID,0.105969,VALID,23.7914,VALID,29,VALID,0,
2009-11-11, 02:45:04,VALID,1005.02,VALID,0,VALID,87.4369,VALID,0.105969,VALID,23.7896,VALID,29,VALID,0,
2009-11-11, 02:46:04,VALID,1004.99,VALID,0,VALID,87.4064,VALID,0.105969,VALID,23.7701,VALID,28,VALID,0.0839844,
2009-11-11, 02:47:04,VALID,1005,VALID,0,VALID,87.4216,VALID,0.105969,VALID,23.772,VALID,28,VALID,0.310937,
2009-11-11, 02:48:04,VALID,1004.96,VALID,0,VALID,87.4369,VALID,0.105969,VALID,23.7312,VALID,23,VALID,0.298047,
2009-11-11, 02:49:04,VALID,1004.96,VALID,0,VALID,87.4064,VALID,0.105969,VALID,23.7507,VALID,352,VALID,0.208594,
2009-11-11, 02:50:04,VALID,1004.91,VALID,0,VALID,87.4598,VALID,0.105969,VALID,23.7312,VALID,352,VALID,0.0582031,
2009-11-11, 02:51:04,VALID,1004.89,VALID,0,VALID,87.4064,VALID,0.105969,VALID,23.7312,VALID,352,VALID,0,
2009-11-11, 02:52:04,VALID,1004.85,VALID,0,VALID,87.414,VALID,0.105969,VALID,23.7117,VALID,352,VALID,0,
2009-11-11, 02:53:04,VALID,1004.8,VALID,0,VALID,87.4598,VALID,0.105969,VALID,23.7117,VALID,353,VALID,0.173047,
2009-11-11, 02:54:04,VALID,1004.76,VALID,0,VALID,87.4293,VALID,0.105969,VALID,23.6727,VALID,353,VALID,0.142188,
2009-11-11, 02:55:04,VALID,1004.74,VALID,0,VALID,87.4369,VALID,0,VALID,23.6745,VALID,353,VALID,0,
2009-11-11, 02:56:04,VALID,1004.72,VALID,0,VALID,87.4369,VALID,0,VALID,23.6745,VALID,353,VALID,0,
2009-11-11, 02:57:04,VALID,1004.7,VALID,0,VALID,87.4521,VALID,0,VALID,23.6745,VALID,353,VALID,0,
2009-11-11, 02:58:04,VALID,1004.69,VALID,0,VALID,87.4369,VALID,0,VALID,23.655,VALID,353,VALID,0,
2009-11-11, 02:59:04,VALID,1004.63,VALID,0,VALID,87.4521,VALID,0,VALID,23.6745,VALID,353,VALID,0,
2009-11-11, 03:00:04,VALID,1004.6,VALID,0,VALID,87.4598,VALID,0,VALID,23.655,VALID,353,VALID,0,
2009-11-11, 03:01:04,VALID,1004.57,VALID,0,VALID,87.4064,VALID,0,VALID,23.6745,VALID,353,VALID,0,
2009-11-11, 03:02:04,VALID,1004.53,VALID,0,VALID,87.4445,VALID,0,VALID,23.6356,VALID,353,VALID,0,
2009-11-11, 03:03:04,VALID,1004.51,VALID,0,VALID,87.4369,VALID,0,VALID,23.6373,VALID,353,VALID,0.219922,
2009-11-11, 03:04:04,VALID,1004.5,VALID,0,VALID,87.4826,VALID,0,VALID,23.6161,VALID,336,VALID,0.375781,
2009-11-11, 03:05:04,VALID,1004.47,VALID,0,VALID,87.4903,VALID,0,VALID,23.5771,VALID,336,VALID,0.167578,
2009-11-11, 03:06:04,VALID,1004.5,VALID,0,VALID,87.4521,VALID,0,VALID,23.6179,VALID,336,VALID,0.108984,
2009-11-11, 03:07:04,VALID,1004.47,VALID,0,VALID,87.4826,VALID,0,VALID,23.6161,VALID,336,VALID,0.297656,
2009-11-11, 03:08:04,VALID,1004.47,VALID,0,VALID,87.5208,VALID,0,VALID,23.5966,VALID,360,VALID,0.632422,
2009-11-11, 03:09:04,VALID,1004.47,VALID,0,VALID,87.5436,VALID,0,VALID,23.5576,VALID,1,VALID,0.472266,
2009-11-11, 03:10:04,VALID,1004.46,VALID,0,VALID,87.5742,VALID,0,VALID,23.5169,VALID,1,VALID,0.509766,
2009-11-11, 03:11:04,VALID,1004.47,VALID,0,VALID,87.5436,VALID,0.105969,VALID,23.4974,VALID,359,VALID,0.384375,
2009-11-11, 03:12:04,VALID,1004.48,VALID,0,VALID,87.5742,VALID,0.105969,VALID,23.5186,VALID,347,VALID,0.539844,
2009-11-11, 03:13:04,VALID,1004.47,VALID,0,VALID,87.5208,VALID,0.105969,VALID,23.4974,VALID,339,VALID,0.282422,
2009-11-11, 03:14:04,VALID,1004.46,VALID,0,VALID,87.536,VALID,0,VALID,23.4974,VALID,339,VALID,0.0550781,
2009-11-11, 03:15:04,VALID,1004.44,VALID,0,VALID,87.5436,VALID,0.105969,VALID,23.5186,VALID,310,VALID,0.1375,
2009-11-11, 03:16:04,VALID,1004.43,VALID,0,VALID,87.5436,VALID,0,VALID,23.4779,VALID,333,VALID,0.637109,
2009-11-11, 03:17:04,VALID,1004.4,VALID,0,VALID,87.5589,VALID,0,VALID,23.4797,VALID,296,VALID,0.554688,
2009-11-11, 03:18:04,VALID,1004.4,VALID,0,VALID,87.6275,VALID,0,VALID,23.4407,VALID,314,VALID,0.673437,
2009-11-11, 03:19:04,VALID,1004.4,VALID,0,VALID,87.6275,VALID,0,VALID,23.4,VALID,321,VALID,0.564844,
2009-11-11, 03:20:04,VALID,1004.41,VALID,0,VALID,87.6504,VALID,0,VALID,23.4017,VALID,332,VALID,0.765625,
2009-11-11, 03:21:04,VALID,1004.4,VALID,0,VALID,87.6199,VALID,0.105969,VALID,23.3805,VALID,332,VALID,0.508594,
2009-11-11, 03:22:04,VALID,1004.42,VALID,0,VALID,87.6352,VALID,0,VALID,23.3823,VALID,307,VALID,0.429688,
2009-11-11, 03:23:04,VALID,1004.44,VALID,0,VALID,87.6352,VALID,0,VALID,23.3415,VALID,15,VALID,0.264844,
2009-11-11, 03:24:04,VALID,1004.45,VALID,0,VALID,87.6504,VALID,0,VALID,23.3433,VALID,319,VALID,0.139844,
2009-11-11, 03:25:04,VALID,1004.45,VALID,0,VALID,87.6504,VALID,0,VALID,23.3433,VALID,319,VALID,0,
2009-11-11, 03:26:04,VALID,1004.41,VALID,0,VALID,87.6199,VALID,0,VALID,23.322,VALID,320,VALID,0.548047,
2009-11-11, 03:27:04,VALID,1004.41,VALID,0,VALID,87.6657,VALID,0,VALID,23.3043,VALID,21,VALID,0.320703,
2009-11-11, 03:28:04,VALID,1004.41,VALID,0,VALID,87.6962,VALID,0.105969,VALID,23.2848,VALID,297,VALID,0.405078,
2009-11-11, 03:29:04,VALID,1004.4,VALID,0,VALID,87.6733,VALID,0.105969,VALID,23.2636,VALID,285,VALID,0,
2009-11-11, 03:30:04,VALID,1004.42,VALID,0,VALID,87.6809,VALID,0,VALID,23.2636,VALID,285,VALID,0,
2009-11-11, 03:31:04,VALID,1004.42,VALID,0,VALID,87.6809,VALID,0,VALID,23.2636,VALID,289,VALID,0.15625,
2009-11-11, 03:32:04,VALID,1004.43,VALID,0,VALID,87.6733,VALID,0,VALID,23.2654,VALID,309,VALID,0,
2009-11-11, 03:33:04,VALID,1004.43,VALID,0,VALID,87.6428,VALID,0.105969,VALID,23.2441,VALID,309,VALID,0,
2009-11-11, 03:34:05,VALID,1004.44,VALID,0,VALID,87.6657,VALID,0,VALID,23.2636,VALID,309,VALID,0.0046875,
2009-11-11, 03:35:05,VALID,1004.44,VALID,0,VALID,87.6657,VALID,0,VALID,23.2441,VALID,319,VALID,0.212109,
2009-11-11, 03:36:05,VALID,1004.46,VALID,0,VALID,87.6504,VALID,0,VALID,23.2654,VALID,321,VALID,0.216406,
2009-11-11, 03:37:05,VALID,1004.46,VALID,0,VALID,87.6199,VALID,0,VALID,23.2459,VALID,330,VALID,0,
2009-11-11, 03:38:05,VALID,1004.46,VALID,0,VALID,87.6504,VALID,0,VALID,23.2459,VALID,330,VALID,0.00078125,
2009-11-11, 03:39:05,VALID,1004.49,VALID,0,VALID,87.6275,VALID,0,VALID,23.2459,VALID,1,VALID,0.287109,
2009-11-11, 03:40:05,VALID,1004.53,VALID,0,VALID,87.6428,VALID,0,VALID,23.2459,VALID,1,VALID,0.0359375,
2009-11-11, 03:41:05,VALID,1004.55,VALID,0,VALID,87.6275,VALID,0,VALID,23.2654,VALID,1,VALID,0,